Regional Weather Roundup
Issued by NWS Cleveland, OH

Home | Current Version | Previous Version | Graphics & Text | Print | Product List | Glossary On
Versions: 1 2 3 4 5 6 7 8 9 10 11 12 13 14 15 16 17 18 19 20 21 22 23 24 25 26 27 28 29 30 31 32 33 34 35 36 37 38 39 40 41 42 43 44 45 46 47 48 49 50
821
ASUS41 KCLE 261512
RWRCLE
OHIO REGIONAL WEATHER ROUNDUP
NATIONAL WEATHER SERVICE WILMINGTON, OH
1100 AM EDT MON JUN 26 2017

NOTE: "FAIR" INDICATES FEW OR NO CLOUDS BELOW 12,000 FEET WITH NO
SIGNIFICANT WEATHER AND/OR OBSTRUCTIONS TO VISIBILITY.

OHZ001>008-015>018-024>027-034-035-043-044-261600-
   NORTHWEST OHIO

CITY           SKY/WX    TMP DP  RH WIND       PRES   REMARKS
DEFIANCE       FAIR      66  46  48 NW12G18   30.10S
FINDLAY        PTSUNNY   68  49  50 W16G24    30.10R
TOLEDO EXPRESS FAIR      67  49  52 W13G21    30.07F
TOLEDO EXEC    FAIR      67  51  56 W17       30.08S
LIMA           FAIR      65  52  62 W16G23    30.12S
$$

OHZ009>014-019>023-028>033-038-089-261600-
   NORTHEAST OHIO

CITY           SKY/WX    TMP DP  RH WIND       PRES   REMARKS
CLE-HOPKINS    PTSUNNY   69  54  58 W10       30.07S
CLE-LAKEFRONT  FAIR      67  56  67 W17G24    30.04S
CUY CO. ARPT   PTSUNNY   66  55  68 W14       30.06R
LORAIN-ELYRIA  FAIR      66  48  52 W14G22    30.07S
ASHTABULA      PTSUNNY   64  53  67 NW7       30.06F
AKRON-CANTON   FAIR      69  49  48 W14       30.07S
WOOSTER        FAIR      66  53  63 W14       30.08S
MANSFIELD      PTSUNNY   65  51  60 W13       30.09S
YOUNGSTOWN     PTSUNNY   68  50  52 W12       30.05F
$$

OHZ042-051>053-060>062-070>072-077>081-261600-
  SOUTHWEST OHIO

CITY           SKY/WX    TMP DP  RH WIND       PRES   REMARKS
CINC-COVINGTON FAIR      68  53  58 NW7       30.18S
CINC-LUNKEN    FAIR      69  51  52 W8G20     30.18R
HAMILTON       FAIR      69  52  54 W14G23    30.17S
DAYTON         FAIR      67  50  54 NW13      30.15F
WRIGHT-PAT AFB FAIR      67  51  56 W14       30.14S
DAYTON GENERAL PTSUNNY   67  49  52 W12G20    30.15S
WILMINGTON     FAIR      67  52  58 W14       30.15S
$$

OHZ036-037-039>041-045>050-054>059-063>069-073>076-082>088-261600-
  CENTRAL AND SOUTHEAST OHIO

CITY           SKY/WX    TMP DP  RH WIND       PRES   REMARKS
COLUMBUS       PTSUNNY   66  53  63 W16       30.12R
OSU AIRPORT    PTSUNNY   66  53  63 W14       30.12S
BOLTON FIELD   PTSUNNY   64  52  63 W9G17     30.14R
RICKENBACK AFB PTSUNNY   67  52  58 W15       30.13S
NEWARK         PTSUNNY   70  48  45 NW8       30.11R
MARION         FAIR      67  50  54 NW15G22   30.11S
LANCASTER      FAIR      67  53  61 W8        30.13S
ZANESVILLE     FAIR      69  50  50 W9        30.10F
NEW PHILLY     FAIR      68  51  54 W8G16     30.09F
$$




USA.gov is the U.S. government's official web portal to all federal, state and local government web resources and services.